Location: Nickerson Gardens
(33.9320°N, 118.2484°W)
Time: 00:30:21
(UTC+00:00)

Envisat - Pass Details

Date: 26 January 2021
Orbit: 764 x 766 km, 98.1° (Epoch: 06 March)

Event Time Altitude Azimuth Distance (km) Brightness Sun altitude
Rises 12:22:06 0° 35° (NE) 3,234 6.6 -31.4°
Reaches altitude 10° 12:25:25 10° 58° (ENE) 2,303 6.1 -30.7°
Maximum altitude 12:28:18 15° 93° (E) 1,958 5.9 -30.1°
Drops below altitude 10° 12:31:12 10° 128° (SE) 2,294 6.1 -29.5°
Sets 12:34:28 0° 151° (SSE) 3,214 6.7 -28.8°
